星链-36533(STARLINK-36533)

导读

STARLINK-36533是美国SpaceX星链星座的成员卫星,该卫星于2026年1月30日发射升空,服务于星链全球卫星互联网组网计划。星链系统旨在为全球提供高速低延迟宽带网络服务,覆盖偏远地区等网络基础设施薄弱区域,这颗卫星将进一步扩充星链星座的在轨服务规模,提升星座的覆盖密度与服务能力。

基本信息
目录编号:
67643
目录名称:
STARLINK-36533
国际标识:
2026-020AC
轨道中心:
EARTH
卫星名称:
星链-36533
卫星全名:
星链-36533(STARLINK-36533)
卫星状态:
在轨 (已飞行217 天)
发射日期:
2026-01-30 UTC
国别 :
美国 (US)
星等 :
--
轨道信息
数据来源 国际轨道数据 AOE轨道数据
星历时间 2026-09-04T13:57:44+0800
7小时前
查看轨道信息
2026-09-03T23:00:00+0800
22小时前
查看轨道信息
半长轴 6861.125km 6861.169km
偏心率 0.0001224 0.0001115
轨道倾角 43.000° 42.998°
近地点辐角 259.220° 271.687°
升交点赤经 211.222° 214.743°
平近点角 100.851° 255.945°
近地点 482.148km 482.266km
远地点 483.828km 483.798km
周期 94.265分钟 94.266分钟
每日圈数 15.276007 15.27586
详细信息
固有亮度:
5
最大亮度:
2.5
卫星平台:
Starlink V1.0
覆盖范围:
全球
运营商:
太空探索技术公司
运营商所在国:
美国
制造商(研发单位):
太空探索技术公司
制造商所在国:
美国
使用方式:
暂无
卫星简介
Starlink 计划是 SpaceX 推出的全球卫星互联网项目,通过发射低轨道卫星,为全球尤其是偏远地区提供高速、低延迟的互联网服务。自 2019 年起,Starlink 已部署数千颗卫星,旨在缩小全球数字鸿沟,推动互联网普及。该项目还为军事、航空等行业提供通信支持,带来广泛经济效益。
2D轨道图
3D轨道图
轨道高度分析图
轨道倾角分析图
轨道综合分析图
查看轨道综合分析图
交会数据列表
事件ID 空间交会对象 最接近时刻(TCA) 交会距离 交会风险概率(CRP) 交会风险指数(CRI) 操作
CDM_260906-042805-844206-764321
2026-09-06T
04:28:09+0000
0.216 km
中距离
5.966489E-4 高风险 0.91
CDM_260906-022706-328406-764321
2026-09-06T
02:27:28+0000
0.841 km
远距离
3.065353E-5 中风险 0.65
CDM_260905-235005-762206-764321
2026-09-05T
23:50:27+0000
0.961 km
远距离
1.463404E-5 中风险 0.58
CDM_260906-040106-328406-764321
2026-09-06T
04:01:37+0000
1.505 km
极远距离
4.244267E-6 低风险 0.48
CDM_260906-025405-844206-764321
2026-09-06T
02:54:00+0000
2.191 km
极远距离
1.561945E-6 低风险 0.39
CDM_260906-012405-762206-764321
2026-09-06T
01:24:36+0000
2.041 km
极远距离
1.405452E-6 低风险 0.38
CDM_260906-060205-844206-764321
2026-09-06T
06:02:18+0000
2.554 km
极远距离
1.168255E-6 低风险 0.36
CDM_260830-193605-358806-764321
2026-08-30T
19:36:48+0000
2.316 km
极远距离
1.12049E-6 低风险 0.36
CDM_260906-060505-849006-764321
2026-09-06T
06:05:02+0000
2.496 km
极远距离
1.079514E-6 低风险 0.36
CDM_260906-051905-762206-764321
2026-09-06T
05:19:59+0000
2.646 km
极远距离
8.629221E-7 极低风险 0.34